Regional Weather Roundup
Issued by NWS Sioux Falls, SD

Home | Current Version | Previous Version | Text Only | Print | Product List | Glossary On
Versions: 1 2 3 4 5 6 7 8 9 10 11 12 13 14 15 16 17 18 19 20 21 22 23 24 25 26 27 28 29 30 31 32 33 34 35 36 37 38 39 40 41 42 43 44 45 46 47 48 49 50
000
ASUS43 KFSD 220502
RWRFSD

WEATHER ROUNDUP FOR SE SOUTH DAKOTA/SW MINNESOTA/NW IOWA
NATIONAL WEATHER SERVICE SIOUX FALLS SD
1100 PM CST SAT JAN 21 2017

NOTE: "FAIR" INDICATES FEW OR NO CLOUDS BELOW 12,000 FEET WITH NO
SIGNIFICANT WEATHER AND OR OBSTRUCTIONS TO VISIBILITY.


SDZ038>040-050-052>070-220600-
SOUTHEAST SOUTH DAKOTA

CITY           SKY/WX    TMP DP  RH WIND       PRES   REMARKS
BROOKINGS      CLOUDY    31  29  92 MISG      29.55R
CHAMBERLAIN    FOG       28  28 100 CALM      29.60R VSB 1/4
HURON          CLOUDY    31  29  92 NW6       29.59R WCI  25
MADISON        CLOUDY    30  30 100 NW8         N/A  WCI  23
MITCHELL       CLOUDY    32  30  92 NW8       29.60R WCI  25
SIOUX FALLS    CLOUDY    32  30  92 NW8       29.57R WCI  25
WINNER         FAIR      29  26  89 W8        29.61R WCI  21
YANKTON        CLOUDY    28  27  93 W6        29.60R WCI  22
$$

MNZ071-072-080-081-089-090-097-098-220600-
SOUTHWEST MINNESOTA

CITY           SKY/WX    TMP DP  RH WIND       PRES   REMARKS
FAIRMONT       CLOUDY    33  31  92 W7        29.55R WCI  27
JACKSON        CLOUDY    32  32 100 W9        29.54R FOG     WCI  24
LUVERNE        CLOUDY    32  28  86 W8        29.57R WCI  25
MARSHALL       CLOUDY    33  33 100 NW7       29.56R FOG     WCI  27
MONTEVIDEO     FOG       34  34 100 CALM      29.57R VSB 1/4
PIPESTONE      CLOUDY    32  30  93 NW7       29.54R FOG     WCI  26
REDWOOD FALLS  FOG       34  32  92 W3        29.54R VSB 1/4
TRACY          FOG       34  34 100 NW6       29.55R VSB 3/4 WCI  29
WINDOM         MIX PCPN  34  34 100 W6        29.53S VSB 1/2 WCI  29
WORTHINGTON    CLOUDY    32  31  96 MISG        N/A
$$

IAZ001>003-012>014-020>022-031-032-NEZ013-014-SDZ071-220600-
NORTHWEST IOWA

CITY           SKY/WX    TMP DP  RH WIND       PRES   REMARKS
CHEROKEE       CLOUDY    32  31  97 NW7       29.58R WCI  25
DENISON        CLEAR     30  30 100 N6        29.56R FOG     WCI  24
ESTHERVILLE    CLOUDY    31  31 100 W9        29.54R WCI  23
LE MARS        CLOUDY    32  30  93 W5        29.60R WCI  27
ORANGE CITY    CLOUDY    32  30  93 NW9       29.57R WCI  24
SHELDON        CLOUDY    32  32 100 NW12      29.55R WCI  23
SIOUX CITY     CLEAR     29  27  92 NW5       29.60R WCI  24
SPENCER          N/A     32  30  92 MISG      29.56R
STORM LAKE     MOCLDY    30  28  93 W5        29.57R FOG     WCI  25
$$

ABBREVIATIONS USED IN REMARKS
   TC - TEMPERATURE IN CELSIUS
  WCI - WIND CHILL INDEX
   HX - HEAT INDEX
  VSB - VISIBILITY




USA.gov is the U.S. government's official web portal to all federal, state and local government web resources and services.